Year,Month,Day,Hour,Minute,Value (Times are PST for barometer in hPa)
2008,01,06,00,00,996.51
2008,01,06,00,01,996.54
2008,01,06,00,02,996.45
2008,01,06,00,03,996.42
2008,01,06,00,04,996.51
2008,01,06,00,05,996.51
2008,01,06,00,06,996.45
2008,01,06,00,07,996.48
2008,01,06,00,08,996.48
2008,01,06,00,09,996.45
2008,01,06,00,10,996.41
2008,01,06,00,11,996.41
2008,01,06,00,12,996.41
2008,01,06,00,13,996.47
2008,01,06,00,14,996.41
2008,01,06,00,15,996.41
2008,01,06,00,16,996.41
2008,01,06,00,17,996.45
2008,01,06,00,18,996.41
2008,01,06,00,19,996.45
2008,01,06,00,20,996.48
2008,01,06,00,21,996.46
2008,01,06,00,22,996.51
2008,01,06,00,23,996.53
2008,01,06,00,24,996.41
2008,01,06,00,25,996.41
2008,01,06,00,26,996.44
2008,01,06,00,27,996.38
2008,01,06,00,28,996.44
2008,01,06,00,29,996.35
2008,01,06,00,30,996.48
2008,01,06,00,31,996.46
2008,01,06,00,32,996.54
2008,01,06,00,33,996.41
2008,01,06,00,34,996.45
2008,01,06,00,35,996.51
2008,01,06,00,36,996.51
2008,01,06,00,37,996.48
2008,01,06,00,38,996.51
2008,01,06,00,39,996.48
2008,01,06,00,40,996.48
2008,01,06,00,41,996.48
2008,01,06,00,42,996.48
2008,01,06,00,43,996.48
2008,01,06,00,44,996.48
2008,01,06,00,45,996.51
2008,01,06,00,46,996.55
2008,01,06,00,47,996.61
2008,01,06,00,48,996.55
2008,01,06,00,49,996.61
2008,01,06,00,50,996.59
2008,01,06,00,51,996.68
2008,01,06,00,52,996.65
2008,01,06,00,53,996.61
2008,01,06,00,54,996.61
2008,01,06,00,55,996.61
2008,01,06,00,56,996.65
2008,01,06,00,57,996.68
2008,01,06,00,58,996.72
2008,01,06,00,59,996.68
2008,01,06,01,00,996.72
2008,01,06,01,01,996.65
2008,01,06,01,02,996.73
2008,01,06,01,03,996.77
2008,01,06,01,04,996.72
2008,01,06,01,05,996.68
2008,01,06,01,06,996.71
2008,01,06,01,07,996.61
2008,01,06,01,08,996.61
2008,01,06,01,09,996.62
2008,01,06,01,10,996.71
2008,01,06,01,11,996.61
2008,01,06,01,12,996.61
2008,01,06,01,13,996.55
2008,01,06,01,14,996.48
2008,01,06,01,15,996.48
2008,01,06,01,16,996.47
2008,01,06,01,17,996.41
2008,01,06,01,18,996.45
2008,01,06,01,19,996.48
2008,01,06,01,20,996.48
2008,01,06,01,21,996.55
2008,01,06,01,22,996.55
2008,01,06,01,23,996.51
2008,01,06,01,24,996.55
2008,01,06,01,25,996.55
2008,01,06,01,26,996.55
2008,01,06,01,27,996.51
2008,01,06,01,28,996.48
2008,01,06,01,29,996.51
2008,01,06,01,30,996.49
2008,01,06,01,31,996.55
2008,01,06,01,32,996.51
2008,01,06,01,33,996.55
2008,01,06,01,34,996.55
2008,01,06,01,35,996.55
2008,01,06,01,36,996.58
2008,01,06,01,37,996.61
2008,01,06,01,38,996.58
2008,01,06,01,39,996.56
2008,01,06,01,40,996.61
2008,01,06,01,41,996.61
2008,01,06,01,42,996.58
2008,01,06,01,43,996.64
2008,01,06,01,44,996.58
2008,01,06,01,45,996.62
2008,01,06,01,46,996.75
2008,01,06,01,47,996.72
2008,01,06,01,48,996.68
2008,01,06,01,49,996.65
2008,01,06,01,50,996.66
2008,01,06,01,51,996.72
2008,01,06,01,52,996.68
2008,01,06,01,53,996.72
2008,01,06,01,54,996.75
2008,01,06,01,55,996.75
2008,01,06,01,56,996.78
2008,01,06,01,57,996.81
2008,01,06,01,58,996.75
2008,01,06,01,59,996.76
2008,01,06,02,00,996.82
2008,01,06,02,01,996.82
2008,01,06,02,02,996.82
2008,01,06,02,03,996.78
2008,01,06,02,04,996.85
2008,01,06,02,05,996.93
2008,01,06,02,06,997.01
2008,01,06,02,07,996.95
2008,01,06,02,08,996.95
2008,01,06,02,09,997.03
2008,01,06,02,10,997.09
2008,01,06,02,11,997.02
2008,01,06,02,12,997.02
2008,01,06,02,13,996.99
2008,01,06,02,14,997.05
2008,01,06,02,15,997.05
2008,01,06,02,16,997.05
2008,01,06,02,17,997.09
2008,01,06,02,18,997.12
2008,01,06,02,19,997.12
2008,01,06,02,20,997.09
2008,01,06,02,21,997.08
2008,01,06,02,22,997.28
2008,01,06,02,23,997.19
2008,01,06,02,24,997.16
2008,01,06,02,25,997.16
2008,01,06,02,26,997.12
2008,01,06,02,27,997.12
2008,01,06,02,28,997.16
2008,01,06,02,29,997.16
2008,01,06,02,30,997.16
2008,01,06,02,31,997.12
2008,01,06,02,32,997.16
2008,01,06,02,33,997.16
2008,01,06,02,34,997.19
2008,01,06,02,35,997.16
2008,01,06,02,36,997.18
2008,01,06,02,37,997.12
2008,01,06,02,38,997.20
2008,01,06,02,39,997.27
2008,01,06,02,40,997.12
2008,01,06,02,41,997.12
2008,01,06,02,42,997.16
2008,01,06,02,43,997.16
2008,01,06,02,44,997.19
2008,01,06,02,45,997.21
2008,01,06,02,46,997.11
2008,01,06,02,47,997.26
2008,01,06,02,48,997.19
2008,01,06,02,49,997.16
2008,01,06,02,50,997.16
2008,01,06,02,51,997.15
2008,01,06,02,52,997.06
2008,01,06,02,53,997.19
2008,01,06,02,54,997.19
2008,01,06,02,55,997.16
2008,01,06,02,56,997.21
2008,01,06,02,57,997.06
2008,01,06,02,58,997.16
2008,01,06,02,59,997.16
2008,01,06,03,00,997.13
2008,01,06,03,01,997.26
2008,01,06,03,02,997.16
2008,01,06,03,03,997.19
2008,01,06,03,04,997.12
2008,01,06,03,05,997.19
2008,01,06,03,06,997.16
2008,01,06,03,07,997.19
2008,01,06,03,08,997.19
2008,01,06,03,09,997.22
2008,01,06,03,10,997.22
2008,01,06,03,11,997.21
2008,01,06,03,12,997.16
2008,01,06,03,13,997.19
2008,01,06,03,14,997.19
2008,01,06,03,15,997.19
2008,01,06,03,16,997.16
2008,01,06,03,17,997.19
2008,01,06,03,18,997.16
2008,01,06,03,19,997.18
2008,01,06,03,20,997.12
2008,01,06,03,21,997.16
2008,01,06,03,22,997.12
2008,01,06,03,23,997.12
2008,01,06,03,24,997.12
2008,01,06,03,25,997.16
2008,01,06,03,26,997.19
2008,01,06,03,27,997.16
2008,01,06,03,28,997.19
2008,01,06,03,29,997.12
2008,01,06,03,30,997.12
2008,01,06,03,31,997.12
2008,01,06,03,32,997.12
2008,01,06,03,33,997.16
2008,01,06,03,34,997.17
2008,01,06,03,35,997.22
2008,01,06,03,36,997.19
2008,01,06,03,37,997.19
2008,01,06,03,38,997.22
2008,01,06,03,39,997.22
2008,01,06,03,40,997.19
2008,01,06,03,41,997.16
2008,01,06,03,42,997.19
2008,01,06,03,43,997.16
2008,01,06,03,44,997.19
2008,01,06,03,45,997.13
2008,01,06,03,46,997.22
2008,01,06,03,47,997.19
2008,01,06,03,48,997.21
2008,01,06,03,49,997.16
2008,01,06,03,50,997.16
2008,01,06,03,51,997.19
2008,01,06,03,52,997.19
2008,01,06,03,53,997.16
2008,01,06,03,54,997.11
2008,01,06,03,55,997.05
2008,01,06,03,56,997.15
2008,01,06,03,57,997.06
2008,01,06,03,58,997.12
2008,01,06,03,59,997.09
2008,01,06,04,00,997.12
2008,01,06,04,01,997.16
2008,01,06,04,02,997.08
2008,01,06,04,03,997.02
2008,01,06,04,04,997.02
2008,01,06,04,05,997.02
2008,01,06,04,06,997.02
2008,01,06,04,07,997.02
2008,01,06,04,08,997.09
2008,01,06,04,09,997.05
2008,01,06,04,10,997.02
2008,01,06,04,11,996.99
2008,01,06,04,12,996.99
2008,01,06,04,13,996.99
2008,01,06,04,14,996.95
2008,01,06,04,15,996.95
2008,01,06,04,16,996.95
2008,01,06,04,17,996.95
2008,01,06,04,18,996.92
2008,01,06,04,19,996.92
2008,01,06,04,20,996.92
2008,01,06,04,21,996.89
2008,01,06,04,22,996.89
2008,01,06,04,23,996.89
2008,01,06,04,24,996.85
2008,01,06,04,25,996.89
2008,01,06,04,26,996.92
2008,01,06,04,27,996.89
2008,01,06,04,28,996.89
2008,01,06,04,29,996.92
2008,01,06,04,30,996.92
2008,01,06,04,31,996.95
2008,01,06,04,32,996.96
2008,01,06,04,33,997.02
2008,01,06,04,34,996.97
2008,01,06,04,35,996.75
2008,01,06,04,36,996.68
2008,01,06,04,37,996.72
2008,01,06,04,38,996.75
2008,01,06,04,39,996.75
2008,01,06,04,40,996.75
2008,01,06,04,41,996.78
2008,01,06,04,42,996.82
2008,01,06,04,43,996.85
2008,01,06,04,44,996.89
2008,01,06,04,45,996.85
2008,01,06,04,46,996.85
2008,01,06,04,47,996.85
2008,01,06,04,48,996.85
2008,01,06,04,49,996.82
2008,01,06,04,50,996.84
2008,01,06,04,51,996.76
2008,01,06,04,52,996.85
2008,01,06,04,53,996.82
2008,01,06,04,54,996.82
2008,01,06,04,55,996.82
2008,01,06,04,56,996.82
2008,01,06,04,57,996.82
2008,01,06,04,58,996.82
2008,01,06,04,59,996.89
2008,01,06,05,00,996.85
2008,01,06,05,01,996.82
2008,01,06,05,02,996.82
2008,01,06,05,03,996.79
2008,01,06,05,04,996.85
2008,01,06,05,05,996.82
2008,01,06,05,06,996.85
2008,01,06,05,07,996.82
2008,01,06,05,08,996.82
2008,01,06,05,09,996.79
2008,01,06,05,10,996.88
2008,01,06,05,11,996.78
2008,01,06,05,12,996.78
2008,01,06,05,13,996.75
2008,01,06,05,14,996.72
2008,01,06,05,15,996.75
2008,01,06,05,16,996.78
2008,01,06,05,17,996.75
2008,01,06,05,18,996.72
2008,01,06,05,19,996.72
2008,01,06,05,20,996.72
2008,01,06,05,21,996.68
2008,01,06,05,22,996.68
2008,01,06,05,23,996.68
2008,01,06,05,24,996.68
2008,01,06,05,25,996.72
2008,01,06,05,26,996.72
2008,01,06,05,27,996.72
2008,01,06,05,28,996.65
2008,01,06,05,29,996.68
2008,01,06,05,30,996.72
2008,01,06,05,31,996.72
2008,01,06,05,32,996.78
2008,01,06,05,33,996.82
2008,01,06,05,34,996.72
2008,01,06,05,35,996.72
2008,01,06,05,36,996.75
2008,01,06,05,37,996.72
2008,01,06,05,38,996.73
2008,01,06,05,39,996.78
2008,01,06,05,40,996.75
2008,01,06,05,41,996.76
2008,01,06,05,42,996.82
2008,01,06,05,43,996.75
2008,01,06,05,44,996.75
2008,01,06,05,45,996.78
2008,01,06,05,46,996.75
2008,01,06,05,47,996.78
2008,01,06,05,48,996.75
2008,01,06,05,49,996.75
2008,01,06,05,50,996.75
2008,01,06,05,51,996.72
2008,01,06,05,52,996.72
2008,01,06,05,53,996.75
2008,01,06,05,54,996.75
2008,01,06,05,55,996.81
2008,01,06,05,56,996.76
2008,01,06,05,57,996.82
2008,01,06,05,58,996.82
2008,01,06,05,59,996.78
2008,01,06,06,00,996.82
2008,01,06,06,01,996.82
2008,01,06,06,02,996.82
2008,01,06,06,03,996.82
2008,01,06,06,04,996.82
2008,01,06,06,05,996.85
2008,01,06,06,06,996.85
2008,01,06,06,07,996.86
2008,01,06,06,08,996.95
2008,01,06,06,09,996.89
2008,01,06,06,10,996.89
2008,01,06,06,11,996.85
2008,01,06,06,12,996.89
2008,01,06,06,13,996.85
2008,01,06,06,14,996.85
2008,01,06,06,15,996.92
2008,01,06,06,16,996.89
2008,01,06,06,17,996.89
2008,01,06,06,18,996.95
2008,01,06,06,19,996.85
2008,01,06,06,20,996.85
2008,01,06,06,21,996.85
2008,01,06,06,22,996.85
2008,01,06,06,23,996.85
2008,01,06,06,24,996.82
2008,01,06,06,25,996.85
2008,01,06,06,26,996.82
2008,01,06,06,27,996.82
2008,01,06,06,28,996.82
2008,01,06,06,29,996.78
2008,01,06,06,30,996.82
2008,01,06,06,31,996.82
2008,01,06,06,32,996.89
2008,01,06,06,33,996.85
2008,01,06,06,34,996.85
2008,01,06,06,35,996.89
2008,01,06,06,36,996.89
2008,01,06,06,37,996.85
2008,01,06,06,38,996.85
2008,01,06,06,39,996.89
2008,01,06,06,40,996.92
2008,01,06,06,41,997.01
2008,01,06,06,42,996.92
2008,01,06,06,43,996.89
2008,01,06,06,44,996.92
2008,01,06,06,45,996.99
2008,01,06,06,46,996.95
2008,01,06,06,47,996.98
2008,01,06,06,48,996.89
2008,01,06,06,49,996.89
2008,01,06,06,50,996.95
2008,01,06,06,51,996.95
2008,01,06,06,52,996.99
2008,01,06,06,53,996.99
2008,01,06,06,54,996.95
2008,01,06,06,55,996.99
2008,01,06,06,56,997.04
2008,01,06,06,57,996.92
2008,01,06,06,58,996.99
2008,01,06,06,59,996.95
2008,01,06,07,00,996.92
2008,01,06,07,01,996.99
2008,01,06,07,02,997.02
2008,01,06,07,03,996.95
2008,01,06,07,04,996.95
2008,01,06,07,05,996.99
2008,01,06,07,06,996.99
2008,01,06,07,07,996.95
2008,01,06,07,08,997.02
2008,01,06,07,09,996.99
2008,01,06,07,10,997.09
2008,01,06,07,11,997.05
2008,01,06,07,12,996.99
2008,01,06,07,13,996.99
2008,01,06,07,14,996.95
2008,01,06,07,15,996.92
2008,01,06,07,16,997.02
2008,01,06,07,17,996.92
2008,01,06,07,18,996.95
2008,01,06,07,19,997.02
2008,01,06,07,20,996.92
2008,01,06,07,21,996.99
2008,01,06,07,22,996.93
2008,01,06,07,23,997.05
2008,01,06,07,24,996.98
2008,01,06,07,25,996.90
2008,01,06,07,26,997.02
2008,01,06,07,27,996.95
2008,01,06,07,28,996.99
2008,01,06,07,29,996.99
2008,01,06,07,30,997.05
2008,01,06,07,31,997.02
2008,01,06,07,32,997.05
2008,01,06,07,33,997.05
2008,01,06,07,34,997.15
2008,01,06,07,35,997.02
2008,01,06,07,36,997.02
2008,01,06,07,37,997.05
2008,01,06,07,38,997.05
2008,01,06,07,39,997.05
2008,01,06,07,40,997.05
2008,01,06,07,41,997.05
2008,01,06,07,42,997.10
2008,01,06,07,43,997.21
2008,01,06,07,44,997.05
2008,01,06,07,45,997.02
2008,01,06,07,46,997.02
2008,01,06,07,47,997.05
2008,01,06,07,48,996.99
2008,01,06,07,49,997.00
2008,01,06,07,50,997.12
2008,01,06,07,51,997.05
2008,01,06,07,52,997.12
2008,01,06,07,53,997.05
2008,01,06,07,54,997.16
2008,01,06,07,55,997.18
2008,01,06,07,56,997.06
2008,01,06,07,57,997.16
2008,01,06,07,58,997.16
2008,01,06,07,59,997.22
2008,01,06,08,00,997.16
2008,01,06,08,01,997.09
2008,01,06,08,02,997.05
2008,01,06,08,03,997.09
2008,01,06,08,04,997.12
2008,01,06,08,05,997.16
2008,01,06,08,06,997.12
2008,01,06,08,07,997.22
2008,01,06,08,08,997.22
2008,01,06,08,09,997.26
2008,01,06,08,10,997.19
2008,01,06,08,11,997.16
2008,01,06,08,12,997.19
2008,01,06,08,13,997.19
2008,01,06,08,14,997.26
2008,01,06,08,15,997.29
2008,01,06,08,16,997.36
2008,01,06,08,17,997.34
2008,01,06,08,18,997.45
2008,01,06,08,19,997.33
2008,01,06,08,20,997.39
2008,01,06,08,21,997.33
2008,01,06,08,22,997.39
2008,01,06,08,23,997.36
2008,01,06,08,24,997.36
2008,01,06,08,25,997.43
2008,01,06,08,26,997.39
2008,01,06,08,27,997.43
2008,01,06,08,28,997.43
2008,01,06,08,29,997.43
2008,01,06,08,30,997.43
2008,01,06,08,31,997.46
2008,01,06,08,32,997.46
2008,01,06,08,33,997.53
2008,01,06,08,34,997.53
2008,01,06,08,35,997.60
2008,01,06,08,36,997.56
2008,01,06,08,37,997.56
2008,01,06,08,38,997.56
2008,01,06,08,39,997.63
2008,01,06,08,40,997.61
2008,01,06,08,41,997.77
2008,01,06,08,42,997.83
2008,01,06,08,43,997.83
2008,01,06,08,44,997.83
2008,01,06,08,45,997.87
2008,01,06,08,46,997.94
2008,01,06,08,47,997.95
2008,01,06,08,48,998.04
2008,01,06,08,49,998.00
2008,01,06,08,50,998.00
2008,01,06,08,51,998.04
2008,01,06,08,52,998.00
2008,01,06,08,53,998.00
2008,01,06,08,54,998.04
2008,01,06,08,55,998.05
2008,01,06,08,56,998.16
2008,01,06,08,57,998.07
2008,01,06,08,58,998.04
2008,01,06,08,59,998.07
2008,01,06,09,00,998.10
2008,01,06,09,01,998.07
2008,01,06,09,02,998.14
2008,01,06,09,03,998.07
2008,01,06,09,04,998.21
2008,01,06,09,05,998.24
2008,01,06,09,06,998.17
2008,01,06,09,07,998.15
2008,01,06,09,08,998.24
2008,01,06,09,09,998.17
2008,01,06,09,10,998.10
2008,01,06,09,11,998.10
2008,01,06,09,12,998.10
2008,01,06,09,13,998.14
2008,01,06,09,14,998.18
2008,01,06,09,15,998.48
2008,01,06,09,16,998.41
2008,01,06,09,17,998.45
2008,01,06,09,18,998.54
2008,01,06,09,19,998.58
2008,01,06,09,20,998.54
2008,01,06,09,21,998.54
2008,01,06,09,22,998.65
2008,01,06,09,23,998.61
2008,01,06,09,24,998.58
2008,01,06,09,25,998.54
2008,01,06,09,26,998.61
2008,01,06,09,27,998.65
2008,01,06,09,28,998.68
2008,01,06,09,29,998.71
2008,01,06,09,30,998.68
2008,01,06,09,31,998.68
2008,01,06,09,32,998.71
2008,01,06,09,33,998.65
2008,01,06,09,34,998.65
2008,01,06,09,35,998.68
2008,01,06,09,36,998.69
2008,01,06,09,37,998.84
2008,01,06,09,38,998.75
2008,01,06,09,39,998.78
2008,01,06,09,40,998.82
2008,01,06,09,41,998.78
2008,01,06,09,42,998.79
2008,01,06,09,43,998.92
2008,01,06,09,44,998.82
2008,01,06,09,45,998.82
2008,01,06,09,46,998.85
2008,01,06,09,47,998.85
2008,01,06,09,48,998.78
2008,01,06,09,49,998.78
2008,01,06,09,50,998.87
2008,01,06,09,51,998.75
2008,01,06,09,52,998.75
2008,01,06,09,53,998.82
2008,01,06,09,54,998.78
2008,01,06,09,55,998.82
2008,01,06,09,56,998.82
2008,01,06,09,57,998.85
2008,01,06,09,58,998.92
2008,01,06,09,59,998.92
2008,01,06,10,00,998.95
2008,01,06,10,01,998.96
2008,01,06,10,02,999.05
2008,01,06,10,03,999.15
2008,01,06,10,04,999.12
2008,01,06,10,05,999.09
2008,01,06,10,06,999.09
2008,01,06,10,07,999.15
2008,01,06,10,08,999.12
2008,01,06,10,09,999.18
2008,01,06,10,10,999.09
2008,01,06,10,11,999.12
2008,01,06,10,12,999.15
2008,01,06,10,13,999.12
2008,01,06,10,14,999.09
2008,01,06,10,15,999.12
2008,01,06,10,16,999.09
2008,01,06,10,17,999.15
2008,01,06,10,18,999.19
2008,01,06,10,19,999.26
2008,01,06,10,20,999.22
2008,01,06,10,21,999.22
2008,01,06,10,22,999.22
2008,01,06,10,23,999.22
2008,01,06,10,24,999.22
2008,01,06,10,25,999.32
2008,01,06,10,26,999.26
2008,01,06,10,27,999.39
2008,01,06,10,28,999.36
2008,01,06,10,29,999.29
2008,01,06,10,30,999.36
2008,01,06,10,31,999.39
2008,01,06,10,32,999.36
2008,01,06,10,33,999.32
2008,01,06,10,34,999.29
2008,01,06,10,35,999.30
2008,01,06,10,36,999.43
2008,01,06,10,37,999.46
2008,01,06,10,38,999.36
2008,01,06,10,39,999.43
2008,01,06,10,40,999.39
2008,01,06,10,41,999.38
2008,01,06,10,42,999.29
2008,01,06,10,43,999.39
2008,01,06,10,44,999.36
2008,01,06,10,45,999.46
2008,01,06,10,46,999.39
2008,01,06,10,47,999.43
2008,01,06,10,48,999.46
2008,01,06,10,49,999.46
2008,01,06,10,50,999.46
2008,01,06,10,51,999.49
2008,01,06,10,52,999.53
2008,01,06,10,53,999.59
2008,01,06,10,54,999.53
2008,01,06,10,55,999.58
2008,01,06,10,56,999.46
2008,01,06,10,57,999.39
2008,01,06,10,58,999.46
2008,01,06,10,59,999.46
2008,01,06,11,00,999.49
2008,01,06,11,01,999.46
2008,01,06,11,02,999.48
2008,01,06,11,03,999.36
2008,01,06,11,04,999.47
2008,01,06,11,05,999.63
2008,01,06,11,06,999.56
2008,01,06,11,07,999.49
2008,01,06,11,08,999.49
2008,01,06,11,09,999.49
2008,01,06,11,10,999.49
2008,01,06,11,11,999.53
2008,01,06,11,12,999.49
2008,01,06,11,13,999.53
2008,01,06,11,14,999.49
2008,01,06,11,15,999.49
2008,01,06,11,16,999.53
2008,01,06,11,17,999.46
2008,01,06,11,18,999.49
2008,01,06,11,19,999.56
2008,01,06,11,20,999.63
2008,01,06,11,21,999.63
2008,01,06,11,22,999.59
2008,01,06,11,23,999.56
2008,01,06,11,24,999.56
2008,01,06,11,25,999.59
2008,01,06,11,26,999.53
2008,01,06,11,27,999.49
2008,01,06,11,28,999.49
2008,01,06,11,29,999.57
2008,01,06,11,30,999.65
2008,01,06,11,31,999.53
2008,01,06,11,32,999.57
2008,01,06,11,33,999.66
2008,01,06,11,34,999.59
2008,01,06,11,35,999.59
2008,01,06,11,36,999.63
2008,01,06,11,37,999.69
2008,01,06,11,38,999.53
2008,01,06,11,39,999.59
2008,01,06,11,40,999.57
2008,01,06,11,41,999.65
2008,01,06,11,42,999.49
2008,01,06,11,43,999.63
2008,01,06,11,44,999.59
2008,01,06,11,45,999.63
2008,01,06,11,46,999.63
2008,01,06,11,47,999.56
2008,01,06,11,48,999.53
2008,01,06,11,49,999.64
2008,01,06,11,50,999.76
2008,01,06,11,51,999.63
2008,01,06,11,52,999.66
2008,01,06,11,53,999.59
2008,01,06,11,54,999.66
2008,01,06,11,55,999.59
2008,01,06,11,56,999.66
2008,01,06,11,57,999.73
2008,01,06,11,58,999.73
2008,01,06,11,59,999.80
2008,01,06,12,00,999.87
2008,01,06,12,01,999.93
2008,01,06,12,02,999.87
2008,01,06,12,03,999.80
2008,01,06,12,04,999.73
2008,01,06,12,05,999.76
2008,01,06,12,06,999.73
2008,01,06,12,07,999.80
2008,01,06,12,08,999.80
2008,01,06,12,09,999.80
2008,01,06,12,10,999.83
2008,01,06,12,11,999.83
2008,01,06,12,12,999.80
2008,01,06,12,13,999.83
2008,01,06,12,14,999.83
2008,01,06,12,15,999.73
2008,01,06,12,16,999.76
2008,01,06,12,17,999.70
2008,01,06,12,18,999.73
2008,01,06,12,19,999.80
2008,01,06,12,20,999.80
2008,01,06,12,21,999.76
2008,01,06,12,22,999.90
2008,01,06,12,23,999.84
2008,01,06,12,24,999.93
2008,01,06,12,25,999.86
2008,01,06,12,26,999.76
2008,01,06,12,27,999.83
2008,01,06,12,28,999.90
2008,01,06,12,29,999.97
2008,01,06,12,30,999.90
2008,01,06,12,31,999.90
2008,01,06,12,32,999.97
2008,01,06,12,33,1000.00
2008,01,06,12,34,999.97
2008,01,06,12,35,1000.00
2008,01,06,12,36,1000.00
2008,01,06,12,37,1000.07
2008,01,06,12,38,1000.07
2008,01,06,12,39,1000.10
2008,01,06,12,40,1000.16
2008,01,06,12,41,1000.07
2008,01,06,12,42,1000.03
2008,01,06,12,43,1000.10
2008,01,06,12,44,1000.20
2008,01,06,12,45,1000.20
2008,01,06,12,46,1000.14
2008,01,06,12,47,1000.14
2008,01,06,12,48,1000.17
2008,01,06,12,49,1000.20
2008,01,06,12,50,1000.17
2008,01,06,12,51,1000.17
2008,01,06,12,52,1000.19
2008,01,06,12,53,1000.10
2008,01,06,12,54,1000.10
2008,01,06,12,55,1000.03
2008,01,06,12,56,1000.07
2008,01,06,12,57,1000.14
2008,01,06,12,58,1000.14
2008,01,06,12,59,1000.14
2008,01,06,13,00,1000.17
2008,01,06,13,01,1000.14
2008,01,06,13,02,1000.14
2008,01,06,13,03,1000.20
2008,01,06,13,04,1000.24
2008,01,06,13,05,1000.24
2008,01,06,13,06,1000.23
2008,01,06,13,07,999.98
2008,01,06,13,08,1000.20
2008,01,06,13,09,1000.27
2008,01,06,13,10,1000.24
2008,01,06,13,11,1000.27
2008,01,06,13,12,1000.27
2008,01,06,13,13,1000.24
2008,01,06,13,14,1000.31
2008,01,06,13,15,1000.33
2008,01,06,13,16,1000.20
2008,01,06,13,17,1000.20
2008,01,06,13,18,1000.20
2008,01,06,13,19,1000.27
2008,01,06,13,20,1000.20
2008,01,06,13,21,1000.24
2008,01,06,13,22,1000.27
2008,01,06,13,23,1000.27
2008,01,06,13,24,1000.31
2008,01,06,13,25,1000.24
2008,01,06,13,26,1000.31
2008,01,06,13,27,1000.34
2008,01,06,13,28,1000.37
2008,01,06,13,29,1000.37
2008,01,06,13,30,1000.34
2008,01,06,13,31,1000.41
2008,01,06,13,32,1000.34
2008,01,06,13,33,1000.36
2008,01,06,13,34,1000.27
2008,01,06,13,35,1000.37
2008,01,06,13,36,1000.34
2008,01,06,13,37,1000.27
2008,01,06,13,38,1000.34
2008,01,06,13,39,1000.23
2008,01,06,13,40,1000.00
2008,01,06,13,41,1000.03
2008,01,06,13,42,1000.03
2008,01,06,13,43,999.93
2008,01,06,13,44,999.97
2008,01,06,13,45,1000.03
2008,01,06,13,46,999.97
2008,01,06,13,47,1000.00
2008,01,06,13,48,999.93
2008,01,06,13,49,1000.00
2008,01,06,13,50,1000.00
2008,01,06,13,51,999.97
2008,01,06,13,52,1000.07
2008,01,06,13,53,1000.00
2008,01,06,13,54,1000.00
2008,01,06,13,55,1000.03
2008,01,06,13,56,1000.10
2008,01,06,13,57,1000.03
2008,01,06,13,58,1000.10
2008,01,06,13,59,1000.10
2008,01,06,14,00,1000.07
2008,01,06,14,01,1000.07
2008,01,06,14,02,1000.03
2008,01,06,14,03,1000.10
2008,01,06,14,04,1000.07
2008,01,06,14,05,1000.03
2008,01,06,14,06,1000.03
2008,01,06,14,07,1000.10
2008,01,06,14,08,1000.07
2008,01,06,14,09,1000.07
2008,01,06,14,10,1000.10
2008,01,06,14,11,1000.07
2008,01,06,14,12,1000.14
2008,01,06,14,13,1000.14
2008,01,06,14,14,1000.20
2008,01,06,14,15,1000.07
2008,01,06,14,16,1000.07
2008,01,06,14,17,1000.08
2008,01,06,14,18,1000.17
2008,01,06,14,19,1000.14
2008,01,06,14,20,1000.17
2008,01,06,14,21,1000.17
2008,01,06,14,22,1000.14
2008,01,06,14,23,1000.20
2008,01,06,14,24,1000.11
2008,01,06,14,25,1000.19
2008,01,06,14,26,1000.11
2008,01,06,14,27,1000.27
2008,01,06,14,28,1000.17
2008,01,06,14,29,1000.14
2008,01,06,14,30,1000.17
2008,01,06,14,31,1000.17
2008,01,06,14,32,1000.20
2008,01,06,14,33,1000.20
2008,01,06,14,34,1000.24
2008,01,06,14,35,1000.20
2008,01,06,14,36,1000.20
2008,01,06,14,37,1000.24
2008,01,06,14,38,1000.24
2008,01,06,14,39,1000.21
2008,01,06,14,40,1000.30
2008,01,06,14,41,1000.17
2008,01,06,14,42,1000.24
2008,01,06,14,43,1000.18
2008,01,06,14,44,1000.34
2008,01,06,14,45,1000.34
2008,01,06,14,46,1000.37
2008,01,06,14,47,1000.34
2008,01,06,14,48,1000.34
2008,01,06,14,49,1000.31
2008,01,06,14,50,1000.34
2008,01,06,14,51,1000.31
2008,01,06,14,52,1000.37
2008,01,06,14,53,1000.31
2008,01,06,14,54,1000.31
2008,01,06,14,55,1000.41
2008,01,06,14,56,1000.31
2008,01,06,14,57,1000.34
2008,01,06,14,58,1000.37
2008,01,06,14,59,1000.44
2008,01,06,15,00,1000.41
2008,01,06,15,01,1000.78
2008,01,06,15,02,1000.81
2008,01,06,15,03,1000.81
2008,01,06,15,04,1000.85
2008,01,06,15,05,1000.81
2008,01,06,15,06,1000.81
2008,01,06,15,07,1000.81
2008,01,06,15,08,1000.85
2008,01,06,15,09,1000.81
2008,01,06,15,10,1000.79
2008,01,06,15,11,1000.92
2008,01,06,15,12,1000.78
2008,01,06,15,13,1000.78
2008,01,06,15,14,1000.71
2008,01,06,15,15,1000.81
2008,01,06,15,16,1000.81
2008,01,06,15,17,1000.78
2008,01,06,15,18,1000.81
2008,01,06,15,19,1000.78
2008,01,06,15,20,1000.75
2008,01,06,15,21,1000.75
2008,01,06,15,22,1000.75
2008,01,06,15,23,1000.85
2008,01,06,15,24,1000.77
2008,01,06,15,25,1000.64
2008,01,06,15,26,1000.85
2008,01,06,15,27,1000.75
2008,01,06,15,28,1000.71
2008,01,06,15,29,1000.75
2008,01,06,15,30,1000.75
2008,01,06,15,31,1000.81
2008,01,06,15,32,1000.85
2008,01,06,15,33,1000.85
2008,01,06,15,34,1000.88
2008,01,06,15,35,1000.78
2008,01,06,15,36,1000.81
2008,01,06,15,37,1000.85
2008,01,06,15,38,1000.88
2008,01,06,15,39,1000.85
2008,01,06,15,40,1000.85
2008,01,06,15,41,1000.81
2008,01,06,15,42,1000.85
2008,01,06,15,43,1000.88
2008,01,06,15,44,1000.85
2008,01,06,15,45,1000.91
2008,01,06,15,46,1000.81
2008,01,06,15,47,1000.81
2008,01,06,15,48,1000.88
2008,01,06,15,49,1000.75
2008,01,06,15,50,1000.86
2008,01,06,15,51,1000.98
2008,01,06,15,52,1000.88
2008,01,06,15,53,1000.95
2008,01,06,15,54,1000.95
2008,01,06,15,55,1000.95
2008,01,06,15,56,1000.85
2008,01,06,15,57,1000.92
2008,01,06,15,58,1000.88
2008,01,06,15,59,1000.88
2008,01,06,16,00,1000.92
2008,01,06,16,01,1000.88
2008,01,06,16,02,1000.88
2008,01,06,16,03,1000.95
2008,01,06,16,04,1000.95
2008,01,06,16,05,1000.95
2008,01,06,16,06,1001.05
2008,01,06,16,07,1001.08
2008,01,06,16,08,1000.98
2008,01,06,16,09,1001.05
2008,01,06,16,10,1001.05
2008,01,06,16,11,1001.12
2008,01,06,16,12,1001.15
2008,01,06,16,13,1001.15
2008,01,06,16,14,1001.12
2008,01,06,16,15,1001.22
2008,01,06,16,16,1001.19
2008,01,06,16,17,1001.15
2008,01,06,16,18,1001.19
2008,01,06,16,19,1001.22
2008,01,06,16,20,1001.15
2008,01,06,16,21,1001.15
2008,01,06,16,22,1001.19
2008,01,06,16,23,1001.15
2008,01,06,16,24,1001.15
2008,01,06,16,25,1001.19
2008,01,06,16,26,1001.25